Grand Forks, ND

2:22 AM CDT on April 24, 2018 (GMT -0500)
Grand Forks International

Weather History for KGFK - March, 2014

Change the Weather History Date:

Sunday, March 9, 2014

  Actual Average Record
Temperature  
Mean Temperature 32 °F 21 °F  
Max Temperature 41 °F 30 °F 58 °F (2015)
Min Temperature 23 °F 13 °F -29 °F (1948)
Degree Days  
Heating Degree Days 33 44  
Month to date heating degree days 541 411  
Since 1 July heating degree days 8436 7561  
Cooling Degree Days 0 0  
Month to date cooling degree days 0 0  
Year to date cooling degree days 0 0  
Moisture  
Dew Point 28 °F    
Average Humidity 84    
Maximum Humidity 92    
Minimum Humidity 76    
Precipitation  
Precipitation 0.00 in 0.03 in 0.52 in (2010)
Month to date precipitation 0.14 0.26  
Year to date precipitation 1.21 1.33  
Snow  
Snow 0.00 in 0.30 in 5.70 in (1993)
Month to date snowfall 1.1 2.7  
Since 1 July snowfall 46.8 39.9  
Snow Depth 11.00 in    
Sea Level Pressure  
Sea Level Pressure 29.61 in    
Wind  
Wind Speed 8 mph (SSW)    
Max Wind Speed 20 mph    
Max Gust Speed 23 mph    
Visibility 10 miles    
Events      
T = Trace of Precipitation, MM = Missing Value Source: NWS Daily Summary

Daily Weather History Graph

Daily Weather History Graph

Search for Another Location

Airport or City:

Astronomy

Mar. 09, 2014 Rise Set
Actual Time 7:53 AM CDT 7:25 PM CDT
Civil Twilight 7:22 AM CDT 7:56 PM CDT
Nautical Twilight 6:47 AM CDT 8:32 PM CDT
Astronomical Twilight 6:10 AM CDT 9:08 PM CDT
Moon 1:00 PM CDT (3/9) 3:39 AM CDT (3/9)
Length of Visible Light 12h 33m
Length of Day
11h 31m
First Quarter, 61% of the Moon is Illuminated
Mar 9
First Quarter
Mar 16
Full
Mar 23
Last Quarter
Mar 30
New
Apr 7
First Quarter

Hourly Weather History & Observations

Time (CDT) Temp. Windchill Dew Point Humidity Pressure Visibility Wind Dir Wind Speed Gust Speed Precip Events Conditions
12:53 AM 23.0 °F 9.6 °F 19.0 °F 85% 29.81 in 10.0 mi South 16.1 mph - N/A   Clear
1:53 AM 23.0 °F 9.2 °F 19.9 °F 88% 29.77 in 10.0 mi South 17.3 mph - N/A   Clear
3:53 AM 23.0 °F 8.7 °F 19.9 °F 88% 29.71 in 10.0 mi South 18.4 mph - N/A   Clear
4:53 AM 24.1 °F 13.1 °F 21.0 °F 88% 29.68 in 10.0 mi South 11.5 mph - N/A   Clear
5:53 AM 26.1 °F 16.8 °F 23.0 °F 88% 29.66 in 10.0 mi South 9.2 mph - N/A   Scattered Clouds
6:53 AM 26.1 °F 16.8 °F 23.0 °F 88% 29.63 in 10.0 mi SSE 9.2 mph - N/A   Mostly Cloudy
7:53 AM 25.0 °F 19.3 °F 21.9 °F 88% 29.61 in 10.0 mi South 4.6 mph - N/A   Scattered Clouds
8:53 AM 28.0 °F 19.3 °F 25.0 °F 88% 29.59 in 10.0 mi South 9.2 mph - N/A   Mostly Cloudy
9:53 AM 34.0 °F 26.6 °F 28.9 °F 82% 29.59 in 10.0 mi SW 9.2 mph - N/A   Overcast
10:53 AM 37.9 °F 30.9 °F 32.0 °F 79% 29.58 in 10.0 mi WSW 10.4 mph - N/A   Mostly Cloudy
11:53 AM 39.0 °F 32.3 °F 32.0 °F 76% 29.58 in 10.0 mi West 10.4 mph - N/A   Mostly Cloudy
12:53 PM 39.9 °F 33.9 °F 32.0 °F 73% 29.60 in 10.0 mi WNW 9.2 mph - N/A   Overcast
1:53 PM 39.0 °F 33.4 °F 32.0 °F 76% 29.60 in 10.0 mi West 8.1 mph - N/A   Overcast
2:53 PM 37.9 °F 32.1 °F 32.0 °F 79% 29.59 in 10.0 mi West 8.1 mph - N/A   Overcast
3:53 PM 39.0 °F 34.8 °F 32.0 °F 76% 29.58 in 10.0 mi WNW 5.8 mph - N/A   Overcast
4:53 PM 37.0 °F 33.3 °F 32.0 °F 82% 29.59 in 10.0 mi West 4.6 mph - N/A   Overcast
5:53 PM 37.9 °F - 32.0 °F 79% 29.58 in 10.0 mi Calm Calm - N/A   Overcast
6:53 PM 35.1 °F - 30.9 °F 85% 29.59 in 10.0 mi Calm Calm - N/A   Mostly Cloudy
7:53 PM 33.1 °F 28.7 °F 30.0 °F 89% 29.59 in 10.0 mi South 4.6 mph - N/A   Scattered Clouds
8:53 PM 30.9 °F 26.2 °F 28.0 °F 89% 29.58 in 10.0 mi South 4.6 mph - N/A   Clear
9:53 PM 30.9 °F 27.5 °F 28.9 °F 92% 29.56 in 10.0 mi South 3.5 mph - N/A   Clear
10:53 PM 30.0 °F 22.4 °F 27.0 °F 88% 29.55 in 10.0 mi South 8.1 mph - N/A   Clear
11:53 PM 32.0 °F 23.0 °F 28.9 °F 88% 29.53 in 10.0 mi SSW 11.5 mph - N/A   Clear
12:53 AM 33.1 °F 26.1 °F 28.9 °F 85% 29.51 in 10.0 mi SW 8.1 mph - N/A   Clear